Home > Weather > Thousand Oaks > Past weeks

Flag for USA Past Weather in Thousand Oaks, California, USA — Yesterday and Last 2 Weeks

Now
65 °F

Passing clouds.


Feels Like: 65 °F
Forecast: 53 / 67 °F
Wind: 7 mph from North

Location: Camarillo Airport

Current Time: May 24, 2016 at 10:50:15 AM

Latest Report: May 24, 2016 at 9:55 AM


Visibility: 10 mi

Pressure: 30.01 "Hg

Humidity: 59%

Dew Point: 50 °F

Location of Thousand OaksLocation

Past Weather in Thousand Oaks — Graph

°F

Thousand Oaks Temperature Yesterday

Maximum temperature yesterday: 68 °F (at 11:55 AM)
Minimum temperature yesterday: 52 °F (at 4:55 AM)
Average temperature yesterday: 61 °F

High & Low Weather Summary for the Past Weeks

 TemperatureHumidityPressure
High71 °F (May 17, 2:55 PM)90% (May 12, 6:55 AM)30.09 "Hg (May 12, 6:55 AM)
Low50 °F (May 21, 5:55 AM)41% (May 22, 12:55 PM)29.84 "Hg (May 20, 2:55 AM)
Average62 °F71%29.97 "Hg
* Reported May 9 9:55 AM — May 24 9:55 AM, Thousand Oaks, Weather by CustomWeather, © 2016

Note: Actual official high and low records may vary slightly from our data, if they occured in-between our weather recording intervals... More about our weather records

Advertising

Thousand Oaks Weather History for the Previous 24 Hours

Scroll right to see more
 ConditionsComfort  
Time TempWeatherWind HumidityBarometerVisibility
9:55 AM
Tue, May 24
65 °FPassing clouds.7 mph59%30.01 "Hg10 mi
8:55 AM61 °FMore clouds than sun.5 mph67%30.00 "Hg10 mi
7:55 AM60 °FPassing clouds.3 mph75%29.99 "Hg10 mi
6:55 AM58 °FOvercast.3 mph75%29.97 "Hg10 mi
5:55 AM57 °FOvercast.5 mph78%29.96 "Hg10 mi
4:55 AM58 °FOvercast.5 mph75%29.94 "Hg10 mi
3:55 AM57 °FPassing clouds.5 mph78%29.94 "Hg10 mi
2:55 AM57 °FPassing clouds.5 mph78%29.93 "Hg10 mi
1:55 AM58 °FPassing clouds.3 mph75%29.94 "Hg10 mi
12:55 AM59 °FOvercast.3 mph75%29.94 "Hg10 mi
11:55 PM
Mon, May 23
59 °FOvercast.3 mph75%29.94 "Hg10 mi
11:04 PM59 °FPartly cloudy.5 mph75%29.92 "Hg10 mi
10:55 PM59 °FPassing clouds.6 mph75%29.94 "Hg10 mi
10:04 PM59 °FPartly cloudy.6 mph75%29.92 "Hg10 mi
9:55 PM59 °FPassing clouds.9 mph75%29.94 "Hg10 mi
8:55 PM59 °FSunny.10 mph75%29.92 "Hg10 mi
7:55 PM61 °FSunny.7 mph70%29.90 "Hg10 mi
6:55 PM63 °FSunny.12 mph60%29.89 "Hg10 mi
5:55 PM65 °FSunny.14 mph59%29.90 "Hg10 mi
4:55 PM66 °FSunny.12 mph54%29.91 "Hg10 mi
3:55 PM68 °FSunny.10 mph53%29.92 "Hg10 mi
2:55 PM68 °FSunny.12 mph55%29.94 "Hg10 mi
1:55 PM68 °FPassing clouds.12 mph57%29.94 "Hg10 mi
12:55 PM67 °FPassing clouds.12 mph59%29.96 "Hg10 mi
11:55 AM68 °FSunny.15 mph55%29.96 "Hg10 mi
10:55 AM67 °FSunny.9 mph57%29.96 "Hg10 mi
Weather by CustomWeather, © 2016

See weather overviewHow to use our weather pages